Chattanooga, TN

9:54 AM EDT on August 29, 2016 (GMT -0400)
Lovell

Weather History for KCHA - June, 2013

Change the Weather History Date:

Friday, June 14, 2013

  Actual Average Record
Temperature  
Mean Temperature 76 °F 76 °F  
Max Temperature 86 °F 87 °F 97 °F (1914)
Min Temperature 65 °F 66 °F 50 °F (1985)
Cooling Degree Days 11 11  
Month to date cooling degree days 176 137  
Year to date cooling degree days 352 333  
Since 1 June cooling degree days 176 137  
Growing Degree Days 25 (Base 50)    
Moisture  
Dew Point 58 °F    
Average Humidity 55    
Maximum Humidity 73    
Minimum Humidity 37    
Precipitation  
Precipitation 0.00 in 0.13 in 1.42 in (1946)
Month to date precipitation 2.58 1.79  
Year to date precipitation 37.25 24.61  
Snow  
Snow 0.00 in - - ()
Month to date snowfall 0.0  
Since 1 June snowfall 0.0  
Snow Depth 0.00 in    
Sea Level Pressure  
Sea Level Pressure 29.95 in    
Wind  
Wind Speed 8 mph (NNE)    
Max Wind Speed 18 mph    
Max Gust Speed 25 mph    
Visibility 10 miles    
Events      
T = Trace of Precipitation, MM = Missing Value Source: NWS Daily Summary

Daily Weather History Graph

Daily Weather History Graph

Search for Another Location

Airport or City:

Trip Planner

Search our weather history database for the weather conditions in past years. The results will help you decide how hot, cold, wet, or windy it might be!

Date:

Astronomy

Jun. 14, 2013 Rise Set
Actual Time 6:26 AM EDT 8:56 PM EDT
Civil Twilight 5:56 AM EDT 9:25 PM EDT
Nautical Twilight 5:19 AM EDT 10:02 PM EDT
Astronomical Twilight 4:39 AM EDT 10:43 PM EDT
Moon 11:49 AM EDT (6/14) 12:11 AM EDT (6/14)
Length of Visible Light 15h 29m
Length of Day
14h 30m
Waxing Crescent, 30% of the Moon is Illuminated
Jun 14
Waxing Crescent
Jun 16
First Quarter
Jun 23
Full
Jun 30
Last Quarter
Jul 8
New

Hourly Weather History & Observations

Time (EDT) Temp. Heat Index Dew Point Humidity Pressure Visibility Wind Dir Wind Speed Gust Speed Precip Events Conditions
12:53 AM 73.0 °F - 64.9 °F 76% 29.89 in 10.0 mi NNW 5.8 mph - N/A   Clear
1:53 AM 73.9 °F - 64.0 °F 71% 29.89 in 10.0 mi North 13.8 mph 19.6 mph N/A   Clear
2:53 AM 72.0 °F - 59.0 °F 64% 29.89 in 10.0 mi NNE 8.1 mph - N/A   Clear
3:53 AM 70.0 °F - 57.9 °F 65% 29.89 in 10.0 mi North 6.9 mph - N/A   Clear
4:53 AM 68.0 °F - 59.0 °F 73% 29.91 in 10.0 mi Calm Calm - N/A   Clear
5:53 AM 66.0 °F - 57.9 °F 75% 29.91 in 10.0 mi NNW 3.5 mph - N/A   Scattered Clouds
6:53 AM 66.0 °F - 57.0 °F 73% 29.94 in 10.0 mi NE 5.8 mph - N/A   Scattered Clouds
7:53 AM 69.1 °F - 57.9 °F 68% 29.95 in 10.0 mi Calm Calm - N/A   Scattered Clouds
8:53 AM 72.0 °F - 57.9 °F 61% 29.97 in 10.0 mi North 10.4 mph - N/A   Scattered Clouds
9:53 AM 73.9 °F - 59.0 °F 59% 29.97 in 10.0 mi NNE 9.2 mph - N/A   Scattered Clouds
10:53 AM 75.9 °F - 57.9 °F 54% 29.97 in 10.0 mi North 12.7 mph - N/A   Scattered Clouds
11:53 AM 79.0 °F - 54.0 °F 42% 29.97 in 10.0 mi NNE 13.8 mph - N/A   Scattered Clouds
12:53 PM 81.0 °F 81.1 °F 57.9 °F 45% 29.98 in 10.0 mi NE 10.4 mph - N/A   Scattered Clouds
1:53 PM 82.0 °F 82.0 °F 57.9 °F 44% 29.98 in 10.0 mi North 11.5 mph - N/A   Scattered Clouds
2:53 PM 84.0 °F 83.5 °F 57.9 °F 41% 29.96 in 10.0 mi NNE 11.5 mph 17.3 mph N/A   Scattered Clouds
3:53 PM 84.0 °F 83.0 °F 55.9 °F 38% 29.94 in 10.0 mi North 11.5 mph 20.7 mph N/A   Scattered Clouds
4:53 PM 84.9 °F 83.7 °F 55.9 °F 37% 29.94 in 10.0 mi North 13.8 mph 20.7 mph N/A   Scattered Clouds
5:53 PM 84.0 °F 82.9 °F 55.0 °F 37% 29.94 in 10.0 mi NNE 16.1 mph 21.9 mph N/A   Scattered Clouds
6:53 PM 82.9 °F 82.4 °F 57.0 °F 41% 29.94 in 10.0 mi NE 11.5 mph 18.4 mph N/A   Mostly Cloudy
7:53 PM 82.0 °F 81.6 °F 55.9 °F 41% 29.96 in 10.0 mi NE 8.1 mph - N/A   Mostly Cloudy
8:53 PM 79.0 °F - 55.9 °F 45% 29.97 in 10.0 mi NE 3.5 mph - N/A   Mostly Cloudy
9:53 PM 73.0 °F - 60.1 °F 64% 29.99 in 10.0 mi Calm Calm - N/A   Mostly Cloudy
10:53 PM 71.1 °F - 61.0 °F 70% 30.00 in 10.0 mi NNW 3.5 mph - N/A   Scattered Clouds
11:53 PM 71.1 °F - 60.1 °F 68% 30.01 in 10.0 mi NE 4.6 mph - N/A   Scattered Clouds